Fort Lewis, WA

4:29 AM PDT on May 23, 2017 (GMT -0700)
Gray Army Air Field

Weather History for KGRF - April, 2014

Change the Weather History Date:

Wednesday, April 30, 2014

  Actual Average Record
Temperature  
Mean Temperature 64 °F -  
Max Temperature 83 °F 60 °F 83 °F (2014)
Min Temperature 47 °F 40 °F 28 °F (2006)
Growing Degree Days 14 (Base 50)    
Moisture  
Dew Point 42 °F    
Average Humidity 47    
Maximum Humidity 78    
Minimum Humidity 20    
Precipitation  
Precipitation 0.00 in - - ()
Sea Level Pressure  
Sea Level Pressure 30.28 in    
Wind  
Wind Speed 4 mph (NNW)    
Max Wind Speed 13 mph    
Max Gust Speed -    
Visibility 10 miles    
Events      
Averages and records for this station are not official NWS values.
T = Trace of Precipitation, MM = Missing Value Source: NWS Daily Summary

Daily Weather History Graph

Daily Weather History Graph

Search for Another Location

Airport or City:

Trip Planner

Search our weather history database for the weather conditions in past years. The results will help you decide how hot, cold, wet, or windy it might be!

Date:

Astronomy

Apr. 30, 2014 Rise Set
Actual Time 5:55 AM PDT 8:19 PM PDT
Civil Twilight 5:22 AM PDT 8:53 PM PDT
Nautical Twilight 4:39 AM PDT 9:36 PM PDT
Astronomical Twilight 3:51 AM PDT 10:25 PM PDT
Moon 6:59 AM PDT (4/30) 10:07 PM PDT (4/30)
Length of Visible Light 15h 31m
Length of Day
14h 23m
Waxing Crescent, 3% of the Moon is Illuminated
Apr 30
Waxing Crescent
May 6
First Quarter
May 14
Full
May 21
Last Quarter
May 28
New

Hourly Weather History & Observations

Time (PDT) Temp. Dew Point Humidity Pressure Visibility Wind Dir Wind Speed Gust Speed Precip Events Conditions
12:58 AM 52.9 °F 42.1 °F 67% 30.39 in 10.0 mi SE 1.2 mph - N/A   Clear
1:58 AM 51.6 °F 41.5 °F 68% 30.38 in 10.0 mi Calm Calm - N/A   Clear
2:58 AM 50.5 °F 41.5 °F 71% 30.38 in 10.0 mi North 1.2 mph - N/A   Clear
3:58 AM 49.5 °F 41.2 °F 73% 30.37 in 10.0 mi Calm Calm - N/A   Clear
4:58 AM 47.7 °F 41.2 °F 78% 30.37 in 10.0 mi ENE 1.2 mph - N/A   Clear
5:58 AM 47.5 °F 40.6 °F 77% 30.37 in 10.0 mi Calm Calm - N/A   Clear
6:58 AM 49.5 °F 42.3 °F 76% 30.37 in 10.0 mi Calm Calm - N/A   Clear
7:58 AM 54.5 °F 43.5 °F 66% 30.37 in 10.0 mi West 2.3 mph - N/A   Clear
8:58 AM 60.6 °F 41.9 °F 50% 30.36 in 10.0 mi Variable 2.3 mph - N/A   Clear
9:58 AM 64.9 °F 41.2 °F 42% 30.35 in 10.0 mi NNW 5.8 mph - N/A   Clear
10:58 AM 68.9 °F 41.4 °F 37% 30.34 in 10.0 mi NW 8.1 mph - N/A   Clear
11:58 AM 72.9 °F 40.1 °F 31% 30.32 in 10.0 mi NNE 5.8 mph - N/A   Clear
12:58 PM 76.8 °F 39.0 °F 26% 30.30 in 10.0 mi NNW 8.1 mph - N/A   Clear
1:58 PM 78.6 °F 40.8 °F 26% 30.28 in 10.0 mi NW 6.9 mph - N/A   Clear
2:58 PM 80.6 °F 40.5 °F 24% 30.26 in 10.0 mi NW 10.4 mph - N/A   Clear
3:58 PM 82.4 °F 39.7 °F 22% 30.23 in 10.0 mi NNW 9.2 mph - N/A   Clear
4:58 PM 82.9 °F 39.0 °F 21% 30.20 in 10.0 mi NNW 11.5 mph - N/A   Clear
5:58 PM 82.6 °F 37.4 °F 20% 30.18 in 10.0 mi North 10.4 mph - N/A   Clear
6:58 PM 80.4 °F 38.3 °F 22% 30.16 in 10.0 mi North 12.7 mph - N/A   Clear
7:58 PM 75.7 °F 40.6 °F 28% 30.15 in 10.0 mi North 9.2 mph - N/A   Clear
8:58 PM 70.9 °F 43.9 °F 38% 30.15 in 10.0 mi North 8.1 mph - N/A   Clear
9:58 PM 67.5 °F 45.1 °F 45% 30.16 in 10.0 mi NNE 1.2 mph - N/A   Clear
10:58 PM 63.7 °F 46.9 °F 54% 30.15 in 10.0 mi SSE 2.3 mph - N/A   Clear
11:58 PM 60.3 °F 46.6 °F 61% 30.15 in 10.0 mi WNW 3.5 mph - N/A   Clear